| time (UTC) | temp C | wind direction | speed KPH | gust KPH | rain 1hr cm | rain 24hr cm | rain mn cm | humidity % | barometer mb |
| 20260508033843 | 6 | 297 | 0.0 | 0.0 | 0.00 | 0.00 | 0.00 | 64 | 1015.6 |
| 20260508033342 | 6 | 309 | 1.6 | 3.2 | 0.00 | 0.00 | 0.00 | 65 | 1015.5 |
| 20260508032839 | 7 | 306 | 3.2 | 3.2 | 0.00 | 0.00 | 0.00 | 64 | 1015.5 |
| 20260508032337 | 7 | 314 | 3.2 | 3.2 | 0.00 | 0.00 | 0.00 | 64 | 1015.7 |
| 20260508031833 | 7 | 298 | 0.0 | 0.0 | 0.00 | 0.00 | 0.00 | 62 | 1015.6 |
| 20260508031330 | 7 | 318 | 4.8 | 4.8 | 0.00 | 0.00 | 0.00 | 63 | 1015.4 |
| 20260508030826 | 7 | 314 | 3.2 | 4.8 | 0.00 | 0.00 | 0.00 | 58 | 1015.3 |
| 20260508030324 | 7 | 305 | 0.0 | 1.6 | 0.00 | 0.00 | 0.00 | 63 | 1015.3 |
| 20260508025820 | 7 | 293 | 1.6 | 3.2 | 0.00 | 0.00 | 0.00 | 64 | 1015.3 |
| 20260508025317 | 7 | 196 | 0.0 | 1.6 | 0.00 | 0.00 | 0.00 | 60 | 1015.4 |
| 20260508024814 | 7 | 302 | 3.2 | 4.8 | 0.00 | 0.00 | 0.00 | 64 | 1015.2 |
| 20260508024310 | 7 | 312 | 1.6 | 3.2 | 0.00 | 0.00 | 0.00 | 64 | 1015.2 |
| 20260508023807 | 7 | 304 | 3.2 | 4.8 | 0.00 | 0.00 | 0.00 | 63 | 1015.2 |
| 20260508023304 | 7 | 306 | 1.6 | 3.2 | 0.00 | 0.00 | 0.00 | 66 | 1015.1 |
| 20260508022800 | 7 | 299 | 0.0 | 3.2 | 0.00 | 0.00 | 0.00 | 64 | 1015.2 |
| 20260508022257 | 7 | 309 | 0.0 | 0.0 | 0.00 | 0.00 | 0.00 | 64 | 1015.1 |
| 20260508021754 | 7 | 309 | 0.0 | 1.6 | 0.00 | 0.00 | 0.00 | 62 | 1014.9 |
| 20260508021249 | 7 | 308 | 0.0 | 3.2 | 0.00 | 0.00 | 0.00 | 65 | 1015.0 |
| 20260508020746 | 8 | 303 | 1.6 | 1.6 | 0.00 | 0.00 | 0.00 | 64 | 1014.9 |
| 20260508020244 | 8 | 303 | 0.0 | 1.6 | 0.00 | 0.00 | 0.00 | 62 | 1014.8 |
| 20260508015741 | 8 | 250 | 0.0 | 0.0 | 0.00 | 0.00 | 0.00 | 62 | 1014.9 |
| 20260508015238 | 8 | 178 | 0.0 | 3.2 | 0.00 | 0.00 | 0.00 | 60 | 1014.7 |
| 20260508014735 | 8 | 304 | 0.0 | 3.2 | 0.00 | 0.00 | 0.00 | 59 | 1014.8 |
| 20260508014232 | 8 | 299 | 1.6 | 3.2 | 0.00 | 0.00 | 0.00 | 63 | 1014.8 |
| 20260508013727 | 8 | 299 | 1.6 | 3.2 | 0.00 | 0.00 | 0.00 | 61 | 1014.8 |
| 20260508013224 | 8 | 179 | 0.0 | 1.6 | 0.00 | 0.00 | 0.00 | 56 | 1014.7 |
| 20260508012722 | 8 | 293 | 1.6 | 1.6 | 0.00 | 0.00 | 0.00 | 59 | 1014.5 |
| 20260508012218 | 9 | 283 | 0.0 | 0.0 | 0.00 | 0.00 | 0.00 | 56 | 1014.5 |
| 20260508011717 | 9 | 308 | 1.6 | 1.6 | 0.00 | 0.00 | 0.00 | 56 | 1014.2 |
| 20260508011214 | 10 | 298 | 1.6 | 3.2 | 0.00 | 0.00 | 0.00 | 53 | 1014.1 |
| 20260508010710 | 10 | 239 | 0.0 | 1.6 | 0.00 | 0.00 | 0.00 | 55 | 1014.1 |
| 20260508010208 | 10 | 324 | 1.6 | 1.6 | 0.00 | 0.00 | 0.00 | 55 | 1014.0 |
| 20260508005706 | 10 | 292 | 1.6 | 1.6 | 0.00 | 0.00 | 0.00 | 56 | 1013.9 |
| 20260508005202 | 10 | 290 | 0.0 | 0.0 | 0.00 | 0.00 | 0.00 | 53 | 1013.8 |
| 20260508004657 | 11 | 75 | 0.0 | 3.2 | 0.00 | 0.00 | 0.00 | 52 | 1013.9 |
| 20260508004154 | 11 | 275 | 1.6 | 3.2 | 0.00 | 0.00 | 0.00 | 50 | 1013.8 |
| 20260508003651 | 11 | 319 | 3.2 | 6.4 | 0.00 | 0.00 | 0.00 | 50 | 1013.7 |
| 20260508003148 | 11 | 317 | 0.0 | 3.2 | 0.00 | 0.00 | 0.00 | 50 | 1013.7 |
| 20260508002644 | 11 | 220 | 0.0 | 0.0 | 0.00 | 0.00 | 0.00 | 53 | 1013.7 |
| 20260508002143 | 11 | 312 | 3.2 | 4.8 | 0.00 | 0.00 | 0.00 | 49 | 1013.7 |
| 20260508001637 | 11 | 311 | 9.7 | 14.5 | 0.00 | 0.00 | 0.00 | 47 | 1013.6 |
| 20260508001133 | 11 | 238 | 1.6 | 4.8 | 0.00 | 0.00 | 0.00 | 53 | 1013.4 |
| 20260508000629 | 11 | 282 | 0.0 | 0.0 | 0.00 | 0.00 | 0.00 | 51 | 1013.5 |
| 20260508000127 | 11 | 273 | 1.6 | 4.8 | 0.00 | 0.00 | 0.00 | 50 | 1013.4 |
| 20260507235624 | 11 | 168 | 0.0 | 1.6 | 0.00 | 0.00 | 0.00 | 51 | 1013.3 |
| 20260507235121 | 11 | 311 | 3.2 | 3.2 | 0.00 | 0.00 | 0.00 | 50 | 1013.4 |
| 20260507234618 | 11 | 139 | 0.0 | 3.2 | 0.00 | 0.00 | 0.00 | 51 | 1013.1 |
| 20260507234114 | 12 | 129 | 0.0 | 3.2 | 0.00 | 0.00 | 0.00 | 50 | 1013.1 |
| 20260507233611 | 12 | 171 | 0.0 | 0.0 | 0.00 | 0.00 | 0.00 | 48 | 1013.0 |
| 20260507233110 | 12 | 268 | 0.0 | 1.6 | 0.00 | 0.00 | 0.00 | 48 | 1012.7 |
| 20260507232605 | 12 | 326 | 1.6 | 9.7 | 0.00 | 0.00 | 0.00 | 47 | 1013.0 |
| 20260507232103 | 12 | 265 | 0.0 | 4.8 | 0.00 | 0.00 | 0.00 | 48 | 1012.8 |
| 20260507231559 | 12 | 285 | 1.6 | 3.2 | 0.00 | 0.00 | 0.00 | 46 | 1012.8 |
| 20260507231057 | 12 | 154 | 0.0 | 11.3 | 0.00 | 0.00 | 0.00 | 46 | 1012.7 |
| 20260507230553 | 13 | 261 | 0.0 | 4.8 | 0.00 | 0.00 | 0.00 | 47 | 1012.5 |
| 20260507230050 | 13 | 305 | 3.2 | 9.7 | 0.00 | 0.00 | 0.00 | 46 | 1012.4 |
| 20260507225544 | 13 | 294 | 1.6 | 11.3 | 0.00 | 0.00 | 0.00 | 45 | 1012.3 |
| 20260507225041 | 13 | 313 | 1.6 | 4.8 | 0.00 | 0.00 | 0.00 | 44 | 1012.5 |
| 20260507224537 | 13 | 205 | 6.4 | 11.3 | 0.00 | 0.00 | 0.00 | 45 | 1012.3 |
| 20260507224034 | 15 | 317 | 3.2 | 12.9 | 0.00 | 0.00 | 0.00 | 44 | 1012.3 |
| 20260507223530 | 14 | 297 | 1.6 | 9.7 | 0.00 | 0.00 | 0.00 | 44 | 1012.2 |
| 20260507223027 | 14 | 311 | 1.6 | 3.2 | 0.00 | 0.00 | 0.00 | 45 | 1012.1 |
| 20260507222524 | 15 | 308 | 3.2 | 20.9 | 0.00 | 0.00 | 0.00 | 43 | 1012.2 |
| 20260507222020 | 15 | 307 | 3.2 | 9.7 | 0.00 | 0.00 | 0.00 | 43 | 1012.1 |
| 20260507221517 | 15 | 298 | 1.6 | 1.6 | 0.00 | 0.00 | 0.00 | 44 | 1011.9 |
| 20260507221014 | 15 | 160 | 3.2 | 4.8 | 0.00 | 0.00 | 0.00 | 44 | 1011.9 |
| 20260507220511 | 15 | 113 | 0.0 | 12.9 | 0.00 | 0.00 | 0.00 | 47 | 1011.7 |
| 20260507220008 | 15 | 286 | 0.0 | 4.8 | 0.00 | 0.00 | 0.00 | 49 | 1011.7 |
| 20260507215504 | 14 | 141 | 1.6 | 3.2 | 0.00 | 0.00 | 0.00 | 47 | 1011.8 |
| 20260507215002 | 15 | 298 | 3.2 | 6.4 | 0.00 | 0.00 | 0.00 | 45 | 1011.5 |
| 20260507214459 | 15 | 134 | 3.2 | 4.8 | 0.00 | 0.00 | 0.00 | 48 | 1011.0 |
| 20260507213955 | 14 | 139 | 0.0 | 4.8 | 0.00 | 0.00 | 0.00 | 48 | 1011.3 |
| 20260507213452 | 14 | 211 | 0.0 | 4.8 | 0.00 | 0.00 | 0.00 | 47 | 1011.1 |
| 20260507212948 | 15 | 139 | 1.6 | 11.3 | 0.00 | 0.00 | 0.00 | 49 | 1011.5 |
| 20260507212444 | 15 | 314 | 1.6 | 11.3 | 0.00 | 0.00 | 0.00 | 47 | 1011.5 |
| 20260507211941 | 15 | 314 | 6.4 | 9.7 | 0.00 | 0.00 | 0.00 | 45 | 1011.6 |
| 20260507211438 | 15 | 302 | 0.0 | 11.3 | 0.00 | 0.00 | 0.00 | 48 | 1011.3 |
| 20260507210935 | 17 | 318 | 4.8 | 6.4 | 0.00 | 0.00 | 0.00 | 43 | 1011.2 |
| 20260507210432 | 17 | 165 | 1.6 | 4.8 | 0.00 | 0.00 | 0.00 | 47 | 1011.1 |
| 20260507205929 | 17 | 156 | 3.2 | 6.4 | 0.00 | 0.00 | 0.00 | 42 | 1011.0 |
| 20260507205426 | 16 | 234 | 0.0 | 6.4 | 0.00 | 0.00 | 0.00 | 43 | 1011.1 |
| 20260507204922 | 17 | 257 | 6.4 | 11.3 | 0.00 | 0.00 | 0.00 | 43 | 1011.1 |
| 20260507204418 | 17 | 144 | 3.2 | 4.8 | 0.00 | 0.00 | 0.00 | 44 | 1011.2 |
| 20260507203916 | 17 | 144 | 1.6 | 6.4 | 0.00 | 0.00 | 0.00 | 44 | 1011.1 |
| 20260507203414 | 17 | 205 | 3.2 | 12.9 | 0.00 | 0.00 | 0.00 | 42 | 1011.0 |
| 20260507202910 | 17 | 198 | 1.6 | 11.3 | 0.00 | 0.00 | 0.00 | 44 | 1010.8 |
| 20260507202406 | 18 | 141 | 9.7 | 11.3 | 0.00 | 0.00 | 0.00 | 41 | 1010.9 |
| 20260507201902 | 18 | 154 | 1.6 | 3.2 | 0.00 | 0.00 | 0.00 | 41 | 1011.0 |
| 20260507201357 | 18 | 157 | 3.2 | 9.7 | 0.00 | 0.00 | 0.00 | 40 | 1010.9 |
| 20260507200854 | 19 | 179 | 0.0 | 4.8 | 0.00 | 0.00 | 0.00 | 42 | 1011.0 |
| 20260507200350 | 18 | 122 | 6.4 | 9.7 | 0.00 | 0.00 | 0.00 | 46 | 1011.0 |
| 20260507195846 | 20 | 331 | 3.2 | 3.2 | 0.00 | 0.00 | 0.00 | 39 | 1010.7 |
| 20260507195344 | 18 | 234 | 4.8 | 4.8 | 0.00 | 0.00 | 0.00 | 40 | 1010.9 |
| 20260507194841 | 20 | 125 | 3.2 | 6.4 | 0.00 | 0.00 | 0.00 | 44 | 1011.1 |
| 20260507194337 | 20 | 207 | 1.6 | 3.2 | 0.00 | 0.00 | 0.00 | 38 | 1010.9 |
| 20260507193834 | 20 | 152 | 6.4 | 9.7 | 0.00 | 0.00 | 0.00 | 42 | 1011.1 |
| 20260507193326 | 20 | 235 | 1.6 | 3.2 | 0.00 | 0.00 | 0.00 | 42 | 1011.1 |
| 20260507192821 | 20 | 225 | 0.0 | 6.4 | 0.00 | 0.00 | 0.00 | 47 | 1011.1 |
| 20260507192318 | 21 | 289 | 1.6 | 3.2 | 0.00 | 0.00 | 0.00 | 46 | 1011.1 |
| 20260507191814 | 20 | 49 | 0.0 | 3.2 | 0.00 | 0.00 | 0.00 | 50 | 1011.3 |
| 20260507191310 | 18 | 276 | 3.2 | 11.3 | 0.00 | 0.00 | 0.00 | 48 | 1011.5 |
| 20260507190807 | 18 | 305 | 3.2 | 11.3 | 0.00 | 0.00 | 0.00 | 43 | 1011.2 |
| 20260507190306 | 18 | 196 | 1.6 | 4.8 | 0.00 | 0.00 | 0.00 | 44 | 1011.2 |
| 20260507185804 | 18 | 248 | 1.6 | 14.5 | 0.00 | 0.00 | 0.00 | 43 | 1011.5 |
| 20260507185300 | 17 | 76 | 3.2 | 12.9 | 0.00 | 0.00 | 0.00 | 50 | 1011.3 |
| 20260507184758 | 17 | 267 | 1.6 | 9.7 | 0.00 | 0.00 | 0.00 | 47 | 1011.5 |
| 20260507184256 | 18 | 299 | 0.0 | 3.2 | 0.00 | 0.00 | 0.00 | 45 | 1011.6 |
| 20260507183752 | 17 | 311 | 8.0 | 12.9 | 0.00 | 0.00 | 0.00 | 47 | 1011.6 |
| 20260507183249 | 18 | 311 | 1.6 | 4.8 | 0.00 | 0.00 | 0.00 | 48 | 1011.6 |
| 20260507182747 | 17 | 296 | 3.2 | 14.5 | 0.00 | 0.00 | 0.00 | 48 | 1011.6 |
| 20260507182242 | 15 | 135 | 0.0 | 4.8 | 0.00 | 0.00 | 0.00 | 59 | 1012.0 |
| 20260507181739 | 16 | 106 | 0.0 | 3.2 | 0.00 | 0.00 | 0.00 | 56 | 1011.8 |
| 20260507181235 | 16 | 260 | 6.4 | 11.3 | 0.00 | 0.00 | 0.00 | 52 | 1011.7 |
| 20260507180732 | 16 | 301 | 6.4 | 12.9 | 0.00 | 0.00 | 0.00 | 50 | 1011.9 |
| 20260507180229 | 16 | 268 | 0.0 | 3.2 | 0.00 | 0.00 | 0.00 | 58 | 1012.0 |
| 20260507175724 | 16 | 232 | 1.6 | 9.7 | 0.00 | 0.00 | 0.00 | 59 | 1012.0 |
| 20260507175221 | 16 | 273 | 0.0 | 0.0 | 0.00 | 0.00 | 0.00 | 65 | 1012.0 |
| 20260507174719 | 16 | 123 | 1.6 | 3.2 | 0.00 | 0.00 | 0.00 | 57 | 1012.3 |
| 20260507174217 | 16 | 137 | 3.2 | 3.2 | 0.00 | 0.00 | 0.00 | 55 | 1012.0 |
| 20260507173715 | 15 | 205 | 0.0 | 9.7 | 0.00 | 0.00 | 0.00 | 57 | 1012.2 |
| 20260507173211 | 15 | 312 | 9.7 | 12.9 | 0.00 | 0.00 | 0.00 | 55 | 1012.2 |
| 20260507172708 | 15 | 299 | 1.6 | 3.2 | 0.00 | 0.00 | 0.00 | 60 | 1012.3 |
| 20260507172204 | 15 | 315 | 3.2 | 3.2 | 0.00 | 0.00 | 0.00 | 57 | 1012.4 |
| 20260507171704 | 15 | 316 | 0.0 | 3.2 | 0.00 | 0.00 | 0.00 | 64 | 1012.6 |
| 20260507171202 | 15 | 130 | 0.0 | 1.6 | 0.00 | 0.00 | 0.00 | 58 | 1012.7 |
| 20260507170659 | 15 | 315 | 0.0 | 1.6 | 0.00 | 0.00 | 0.00 | 62 | 1012.6 |
| 20260507170156 | 15 | 298 | 1.6 | 6.4 | 0.00 | 0.00 | 0.00 | 56 | 1012.7 |
| 20260507165651 | 16 | 308 | 0.0 | 1.6 | 0.00 | 0.00 | 0.00 | 61 | 1012.6 |
| 20260507165148 | 14 | 121 | 3.2 | 6.4 | 0.00 | 0.00 | 0.00 | 66 | 1012.6 |
| 20260507164644 | 14 | 307 | 4.8 | 6.4 | 0.00 | 0.00 | 0.00 | 63 | 1012.8 |
| 20260507164141 | 15 | 300 | 3.2 | 3.2 | 0.00 | 0.00 | 0.00 | 59 | 1013.0 |
| 20260507163638 | 15 | 213 | 0.0 | 0.0 | 0.00 | 0.00 | 0.00 | 63 | 1013.0 |
| 20260507163136 | 14 | 278 | 0.0 | 3.2 | 0.00 | 0.00 | 0.00 | 58 | 1013.2 |
| 20260507162632 | 15 | 278 | 3.2 | 6.4 | 0.00 | 0.00 | 0.00 | 57 | 1013.4 |
| 20260507162128 | 15 | 321 | 3.2 | 6.4 | 0.00 | 0.00 | 0.00 | 59 | 1013.2 |
| 20260507161624 | 17 | 288 | 1.6 | 4.8 | 0.00 | 0.00 | 0.00 | 60 | 1013.3 |
| 20260507161121 | 18 | 256 | 0.0 | 1.6 | 0.00 | 0.00 | 0.00 | 53 | 1013.3 |
| 20260507160617 | 17 | 274 | 0.0 | 1.6 | 0.00 | 0.00 | 0.00 | 58 | 1013.4 |
| 20260507160114 | 16 | 289 | 1.6 | 3.2 | 0.00 | 0.00 | 0.00 | 64 | 1013.5 |
| 20260507155609 | 16 | 189 | 0.0 | 3.2 | 0.00 | 0.00 | 0.00 | 55 | 1013.6 |
| 20260507155107 | 16 | 312 | 4.8 | 4.8 | 0.00 | 0.00 | 0.00 | 56 | 1013.5 |
| 20260507154603 | 16 | 171 | 0.0 | 4.8 | 0.00 | 0.00 | 0.00 | 54 | 1013.4 |
| 20260507154100 | 16 | 144 | 3.2 | 3.2 | 0.00 | 0.00 | 0.00 | 54 | 1013.8 |
| 20260507153557 | 14 | 288 | 0.0 | 4.8 | 0.00 | 0.00 | 0.00 | 59 | 1013.8 |
| 20260507153054 | 13 | 130 | 1.6 | 3.2 | 0.00 | 0.00 | 0.00 | 61 | 1013.9 |
| 20260507152550 | 13 | 132 | 3.2 | 3.2 | 0.00 | 0.00 | 0.00 | 61 | 1013.9 |
| 20260507152046 | 13 | 304 | 8.0 | 9.7 | 0.00 | 0.00 | 0.00 | 58 | 1013.9 |
| 20260507151542 | 13 | 312 | 0.0 | 3.2 | 0.00 | 0.00 | 0.00 | 61 | 1013.9 |
| 20260507151039 | 13 | 131 | 1.6 | 6.4 | 0.00 | 0.00 | 0.00 | 58 | 1013.7 |
| 20260507150536 | 14 | 151 | 3.2 | 3.2 | 0.00 | 0.00 | 0.00 | 59 | 1013.8 |
| 20260507150033 | 13 | 304 | 0.0 | 3.2 | 0.00 | 0.00 | 0.00 | 63 | 1013.9 |
| 20260507145528 | 13 | 290 | 1.6 | 4.8 | 0.00 | 0.00 | 0.00 | 59 | 1014.0 |
| 20260507145026 | 12 | 148 | 1.6 | 3.2 | 0.00 | 0.00 | 0.00 | 61 | 1013.9 |
| 20260507144522 | 12 | 153 | 3.2 | 4.8 | 0.00 | 0.00 | 0.00 | 63 | 1014.5 |
| 20260507144020 | 12 | 320 | 1.6 | 3.2 | 0.00 | 0.00 | 0.00 | 64 | 1014.3 |
| 20260507143517 | 12 | 195 | 0.0 | 0.0 | 0.00 | 0.00 | 0.00 | 69 | 1014.5 |
| 20260507143014 | 12 | 318 | 0.0 | 3.2 | 0.00 | 0.00 | 0.00 | 66 | 1014.5 |
| 20260507142509 | 12 | 352 | 0.0 | 1.6 | 0.00 | 0.00 | 0.00 | 70 | 1014.6 |
| 20260507142007 | 11 | 321 | 3.2 | 4.8 | 0.00 | 0.00 | 0.00 | 72 | 1014.6 |
| 20260507141502 | 10 | 248 | 0.0 | 0.0 | 0.00 | 0.00 | 0.00 | 72 | 1014.8 |
| 20260507140959 | 10 | 185 | 0.0 | 1.6 | 0.00 | 0.00 | 0.00 | 74 | 1014.9 |
| 20260507140456 | 10 | 217 | 0.0 | 1.6 | 0.00 | 0.00 | 0.00 | 76 | 1015.1 |
| 20260507135953 | 10 | 170 | 1.6 | 1.6 | 0.00 | 0.00 | 0.00 | 75 | 1015.0 |
| 20260507135450 | 9 | 316 | 3.2 | 9.7 | 0.00 | 0.00 | 0.00 | 78 | 1015.1 |
| 20260507134947 | 9 | 293 | 1.6 | 4.8 | 0.00 | 0.00 | 0.00 | 79 | 1014.9 |
| 20260507134444 | 9 | 166 | 1.6 | 1.6 | 0.00 | 0.00 | 0.00 | 79 | 1015.2 |
| 20260507133940 | 9 | 228 | 0.0 | 0.0 | 0.00 | 0.00 | 0.00 | 82 | 1015.1 |
| 20260507133436 | 9 | 281 | 0.0 | 3.2 | 0.00 | 0.00 | 0.00 | 81 | 1015.0 |
| 20260507132935 | 9 | 160 | 0.0 | 0.0 | 0.00 | 0.00 | 0.00 | 83 | 1015.1 |
| 20260507132431 | 9 | 136 | 3.2 | 3.2 | 0.00 | 0.00 | 0.00 | 83 | 1015.2 |
| 20260507131927 | 9 | 253 | 0.0 | 0.0 | 0.00 | 0.00 | 0.00 | 84 | 1015.3 |
| 20260507131424 | 9 | 141 | 1.6 | 1.6 | 0.00 | 0.00 | 0.00 | 85 | 1015.3 |
| 20260507130921 | 10 | 232 | 0.0 | 0.0 | 0.00 | 0.00 | 0.00 | 87 | 1015.2 |
| 20260507130418 | 9 | 227 | 0.0 | 0.0 | 0.00 | 0.00 | 0.00 | 88 | 1015.4 |
| 20260507125917 | 9 | 264 | 0.0 | 0.0 | 0.00 | 0.00 | 0.00 | 87 | 1015.4 |
| 20260507125414 | 9 | 268 | 0.0 | 0.0 | 0.00 | 0.00 | 0.00 | 88 | 1015.3 |
| 20260507124912 | 9 | 255 | 0.0 | 0.0 | 0.00 | 0.00 | 0.00 | 87 | 1015.3 |
| 20260507124408 | 9 | 304 | 0.0 | 0.0 | 0.00 | 0.00 | 0.00 | 87 | 1015.2 |
| 20260507123906 | 9 | 304 | 0.0 | 0.0 | 0.00 | 0.00 | 0.00 | 88 | 1015.2 |
| 20260507123403 | 9 | 304 | 0.0 | 4.8 | 0.00 | 0.00 | 0.00 | 86 | 1015.4 |
| 20260507122900 | 10 | 279 | 0.0 | 0.0 | 0.00 | 0.00 | 0.00 | 87 | 1015.3 |
| 20260507122355 | 10 | 242 | 0.0 | 0.0 | 0.00 | 0.00 | 0.00 | 87 | 1015.1 |
| 20260507121851 | 10 | 239 | 0.0 | 0.0 | 0.00 | 0.00 | 0.00 | 87 | 1015.0 |
| 20260507121347 | 10 | 238 | 0.0 | 1.6 | 0.00 | 0.00 | 0.00 | 87 | 1014.9 |
| 20260507120844 | 10 | 274 | 0.0 | 0.0 | 0.00 | 0.00 | 0.00 | 87 | 1014.8 |
| 20260507120340 | 10 | 273 | 0.0 | 0.0 | 0.00 | 0.00 | 0.00 | 87 | 1014.8 |
| 20260507115836 | 10 | 272 | 0.0 | 0.0 | 0.00 | 0.00 | 0.00 | 87 | 1014.8 |
| 20260507115332 | 10 | 272 | 0.0 | 0.0 | 0.00 | 0.00 | 0.00 | 86 | 1014.7 |
| 20260507114828 | 10 | 272 | 0.0 | 0.0 | 0.00 | 0.00 | 0.00 | 87 | 1014.7 |
| 20260507114325 | 10 | 296 | 0.0 | 0.0 | 0.00 | 0.00 | 0.00 | 87 | 1014.8 |
| 20260507113823 | 10 | 223 | 0.0 | 0.0 | 0.00 | 0.00 | 0.00 | 87 | 1014.9 |
| 20260507113319 | 10 | 223 | 0.0 | 0.0 | 0.00 | 0.00 | 0.00 | 86 | 1014.6 |
| 20260507112817 | 10 | 223 | 0.0 | 0.0 | 0.00 | 0.00 | 0.00 | 86 | 1014.3 |
| 20260507112314 | 10 | 223 | 0.0 | 0.0 | 0.00 | 0.00 | 0.00 | 87 | 1014.5 |
| 20260507111812 | 10 | 223 | 0.0 | 0.0 | 0.00 | 0.00 | 0.00 | 87 | 1014.5 |
| 20260507111308 | 10 | 223 | 0.0 | 0.0 | 0.00 | 0.00 | 0.00 | 88 | 1014.3 |
| 20260507110804 | 10 | 223 | 0.0 | 0.0 | 0.00 | 0.00 | 0.00 | 88 | 1014.1 |
| 20260507110301 | 10 | 223 | 0.0 | 0.0 | 0.00 | 0.00 | 0.00 | 89 | 1014.1 |
| 20260507105758 | 10 | 223 | 0.0 | 0.0 | 0.00 | 0.00 | 0.00 | 89 | 1014.1 |
| 20260507105254 | 10 | 223 | 0.0 | 0.0 | 0.00 | 0.00 | 0.00 | 89 | 1014.1 |
| 20260507104751 | 10 | 220 | 0.0 | 0.0 | 0.00 | 0.00 | 0.00 | 89 | 1014.2 |
| 20260507104242 | 10 | 204 | 0.0 | 0.0 | 0.00 | 0.00 | 0.00 | 90 | 1014.0 |
| 20260507103737 | 10 | 204 | 0.0 | 0.0 | 0.00 | 0.00 | 0.00 | 90 | 1014.0 |
| 20260507103234 | 10 | 204 | 0.0 | 0.0 | 0.00 | 0.00 | 0.00 | 91 | 1014.1 |
| 20260507102730 | 10 | 204 | 0.0 | 0.0 | 0.00 | 0.00 | 0.00 | 90 | 1014.0 |
| 20260507102227 | 10 | 204 | 0.0 | 0.0 | 0.00 | 0.00 | 0.00 | 90 | 1014.1 |
| 20260507101723 | 10 | 204 | 0.0 | 0.0 | 0.00 | 0.00 | 0.00 | 90 | 1014.1 |
| 20260507101218 | 10 | 204 | 0.0 | 0.0 | 0.00 | 0.00 | 0.00 | 90 | 1014.3 |
| 20260507100716 | 10 | 204 | 0.0 | 0.0 | 0.00 | 0.00 | 0.00 | 89 | 1014.2 |
| 20260507100214 | 10 | 204 | 0.0 | 0.0 | 0.00 | 0.00 | 0.00 | 89 | 1014.2 |
| 20260507095712 | 10 | 204 | 0.0 | 0.0 | 0.00 | 0.00 | 0.00 | 90 | 1014.2 |
| 20260507095208 | 10 | 203 | 0.0 | 0.0 | 0.00 | 0.00 | 0.00 | 90 | 1014.0 |
| 20260507094705 | 10 | 203 | 0.0 | 0.0 | 0.00 | 0.00 | 0.00 | 90 | 1014.0 |
| 20260507094202 | 10 | 203 | 0.0 | 0.0 | 0.00 | 0.00 | 0.00 | 90 | 1013.8 |
| 20260507093659 | 10 | 235 | 0.0 | 0.0 | 0.00 | 0.00 | 0.00 | 90 | 1013.9 |
| 20260507093158 | 10 | 235 | 0.0 | 0.0 | 0.00 | 0.00 | 0.00 | 90 | 1013.7 |
| 20260507092654 | 10 | 235 | 0.0 | 0.0 | 0.00 | 0.00 | 0.00 | 89 | 1013.8 |
| 20260507092151 | 10 | 250 | 0.0 | 0.0 | 0.00 | 0.00 | 0.00 | 89 | 1013.8 |
| 20260507091647 | 10 | 250 | 0.0 | 0.0 | 0.00 | 0.00 | 0.00 | 89 | 1013.6 |
| 20260507091144 | 10 | 250 | 0.0 | 0.0 | 0.00 | 0.00 | 0.00 | 89 | 1013.6 |
| 20260507090639 | 10 | 261 | 0.0 | 0.0 | 0.00 | 0.00 | 0.00 | 90 | 1013.8 |
| 20260507090137 | 10 | 261 | 0.0 | 0.0 | 0.00 | 0.00 | 0.00 | 90 | 1013.7 |
| 20260507085633 | 10 | 261 | 0.0 | 0.0 | 0.00 | 0.00 | 0.00 | 90 | 1013.8 |
| 20260507085130 | 10 | 297 | 3.2 | 3.2 | 0.00 | 0.00 | 0.00 | 89 | 1013.8 |
| 20260507084627 | 10 | 256 | 0.0 | 0.0 | 0.00 | 0.00 | 0.00 | 89 | 1013.6 |
| 20260507084124 | 10 | 286 | 1.6 | 3.2 | 0.00 | 0.00 | 0.00 | 89 | 1013.6 |
| 20260507083620 | 10 | 234 | 0.0 | 3.2 | 0.00 | 0.00 | 0.00 | 89 | 1013.4 |
| 20260507083117 | 10 | 294 | 3.2 | 6.4 | 0.00 | 0.00 | 0.00 | 88 | 1013.7 |
| 20260507082613 | 10 | 297 | 1.6 | 4.8 | 0.00 | 0.00 | 0.00 | 87 | 1013.5 |
| 20260507082110 | 10 | 303 | 4.8 | 4.8 | 0.00 | 0.00 | 0.00 | 87 | 1013.4 |
| 20260507081606 | 10 | 292 | 0.0 | 1.6 | 0.00 | 0.00 | 0.00 | 86 | 1013.9 |
| 20260507081103 | 10 | 293 | 1.6 | 3.2 | 0.00 | 0.00 | 0.00 | 85 | 1013.9 |
| 20260507080559 | 10 | 310 | 3.2 | 4.8 | 0.00 | 0.00 | 0.00 | 85 | 1013.7 |
| 20260507080056 | 10 | 316 | 3.2 | 4.8 | 0.00 | 0.00 | 0.00 | 85 | 1013.7 |
| 20260507075551 | 11 | 292 | 1.6 | 4.8 | 0.00 | 0.00 | 0.00 | 85 | 1013.9 |
| 20260507075047 | 11 | 296 | 1.6 | 3.2 | 0.00 | 0.00 | 0.00 | 86 | 1014.1 |
| 20260507074544 | 11 | 283 | 0.0 | 0.0 | 0.00 | 0.00 | 0.00 | 86 | 1014.0 |
| 20260507074043 | 11 | 236 | 0.0 | 1.6 | 0.00 | 0.00 | 0.00 | 86 | 1013.9 |
| 20260507073538 | 11 | 308 | 3.2 | 4.8 | 0.00 | 0.00 | 0.00 | 86 | 1013.8 |
| 20260507073035 | 11 | 318 | 0.0 | 1.6 | 0.00 | 0.00 | 0.00 | 86 | 1013.6 |
| 20260507072533 | 11 | 282 | 0.0 | 3.2 | 0.00 | 0.00 | 0.00 | 84 | 1013.6 |
| 20260507072030 | 11 | 305 | 1.6 | 1.6 | 0.00 | 0.00 | 0.00 | 84 | 1013.6 |
| 20260507071527 | 12 | 129 | 0.0 | 0.0 | 0.00 | 0.00 | 0.00 | 85 | 1013.6 |
| 20260507071024 | 12 | 124 | 0.0 | 0.0 | 0.00 | 0.00 | 0.00 | 85 | 1013.7 |
| 20260507070521 | 12 | 230 | 0.0 | 1.6 | 0.00 | 0.00 | 0.00 | 85 | 1013.9 |
| 20260507070018 | 12 | 243 | 0.0 | 0.0 | 0.00 | 0.00 | 0.00 | 87 | 1013.5 |
| 20260507065514 | 12 | 243 | 0.0 | 0.0 | 0.00 | 0.00 | 0.00 | 86 | 1013.4 |
| 20260507065011 | 12 | 282 | 1.6 | 1.6 | 0.00 | 0.00 | 0.00 | 86 | 1013.5 |
| 20260507064509 | 12 | 214 | 0.0 | 0.0 | 0.00 | 0.00 | 0.00 | 87 | 1013.5 |
| 20260507064007 | 12 | 214 | 0.0 | 0.0 | 0.00 | 0.00 | 0.00 | 86 | 1013.4 |
| 20260507063504 | 12 | 282 | 0.0 | 0.0 | 0.00 | 0.00 | 0.00 | 88 | 1013.6 |
| 20260507063001 | 12 | 282 | 0.0 | 0.0 | 0.00 | 0.00 | 0.00 | 88 | 1013.6 |
| 20260507062458 | 12 | 147 | 0.0 | 0.0 | 0.00 | 0.00 | 0.00 | 88 | 1013.4 |
| 20260507061955 | 12 | 147 | 0.0 | 3.2 | 0.00 | 0.00 | 0.00 | 87 | 1013.8 |
| 20260507061453 | 12 | 188 | 0.0 | 3.2 | 0.00 | 0.00 | 0.00 | 88 | 1013.5 |
| 20260507060951 | 12 | 146 | 0.0 | 3.2 | 0.00 | 0.00 | 0.00 | 87 | 1013.6 |
| 20260507060448 | 12 | 148 | 0.0 | 1.6 | 0.00 | 0.00 | 0.00 | 88 | 1013.4 |
| 20260507055944 | 12 | 142 | 0.0 | 1.6 | 0.00 | 0.00 | 0.00 | 87 | 1013.6 |
| 20260507055440 | 12 | 174 | 1.6 | 1.6 | 0.00 | 0.00 | 0.00 | 87 | 1013.5 |
| 20260507054937 | 12 | 258 | 0.0 | 1.6 | 0.00 | 0.00 | 0.00 | 88 | 1013.4 |
| 20260507054433 | 13 | 128 | 1.6 | 3.2 | 0.00 | 0.00 | 0.00 | 88 | 1013.7 |
| 20260507053930 | 13 | 288 | 1.6 | 1.6 | 0.00 | 0.00 | 0.00 | 89 | 1014.3 |
| 20260507053428 | 13 | 279 | 0.0 | 0.0 | 0.00 | 0.00 | 0.00 | 90 | 1013.9 |
| 20260507052926 | 13 | 279 | 0.0 | 1.6 | 0.00 | 0.00 | 0.00 | 90 | 1013.9 |
| 20260507052423 | 13 | 278 | 0.0 | 0.0 | 0.00 | 0.00 | 0.00 | 90 | 1013.6 |
| 20260507051920 | 13 | 278 | 0.0 | 0.0 | 0.00 | 0.00 | 0.00 | 90 | 1013.7 |
| 20260507051418 | 13 | 269 | 0.0 | 1.6 | 0.00 | 0.00 | 0.00 | 90 | 1014.0 |
| 20260507050915 | 13 | 261 | 0.0 | 0.0 | 0.00 | 0.00 | 0.00 | 91 | 1013.9 |
| 20260507050411 | 13 | 261 | 0.0 | 0.0 | 0.00 | 0.00 | 0.00 | 90 | 1013.6 |
| 20260507045908 | 13 | 265 | 0.0 | 0.0 | 0.00 | 0.00 | 0.00 | 90 | 1013.4 |
| 20260507045405 | 13 | 265 | 0.0 | 1.6 | 0.00 | 0.00 | 0.00 | 90 | 1013.6 |
| 20260507044902 | 13 | 265 | 0.0 | 0.0 | 0.00 | 0.00 | 0.00 | 91 | 1013.4 |
| 20260507044358 | 13 | 247 | 0.0 | 0.0 | 0.00 | 0.00 | 0.00 | 90 | 1013.3 |
| 20260507043854 | 13 | 247 | 0.0 | 0.0 | 0.00 | 0.00 | 0.00 | 90 | 1013.5 |
| 20260507043351 | 14 | 247 | 0.0 | 0.0 | 0.00 | 0.00 | 0.00 | 89 | 1013.3 |
| 20260507042847 | 14 | 298 | 0.0 | 1.6 | 0.00 | 0.00 | 0.00 | 88 | 1013.0 |
| 20260507042344 | 14 | 309 | 0.0 | 4.8 | 0.00 | 0.00 | 0.00 | 87 | 1013.4 |
| 20260507041840 | 14 | 303 | 4.8 | 4.8 | 0.00 | 0.00 | 0.00 | 86 | 1013.3 |
| 20260507041337 | 14 | 304 | 1.6 | 1.6 | 0.00 | 0.00 | 0.00 | 89 | 1013.0 |
| 20260507040829 | 14 | 278 | 0.0 | 1.6 | 0.00 | 0.00 | 0.00 | 88 | 1013.0 |
| 20260507040325 | 13 | 309 | 1.6 | 3.2 | 0.00 | 0.00 | 0.00 | 91 | 1012.8 |
| 20260507035821 | 13 | 273 | 0.0 | 1.6 | 0.00 | 0.43 | 0.43 | 91 | 1012.5 |
| 20260507035316 | 13 | 303 | 1.6 | 3.2 | 0.00 | 0.43 | 0.43 | 91 | 1012.7 |
| 20260507034814 | 13 | 293 | 1.6 | 1.6 | 0.00 | 0.43 | 0.43 | 92 | 1012.2 |
| 20260507034311 | 13 | 145 | 0.0 | 3.2 | 0.00 | 0.43 | 0.43 | 91 | 1012.7 |